Time,TemperatureF,DewpointF,PressureIn,WindDirection,WindDirectionDegrees,WindSpeedMPH,WindSpeedGustMPH,Humidity,HourlyPrecipIn,Conditions,Clouds,dailyrainin,SoftwareType,DateUTC
2013-06-12 00:00:00,76.0,69.4,29.79,ESE,112,9.0,14.0,80,0.00,,,-99.99,Weather View 32 v60,2013-06-12 05:00:00,
2013-06-12 00:08:00,76.0,69.4,29.79,ESE,112,9.0,14.0,80,0.00,,,-99.99,Weather View 32 v60,2013-06-12 05:08:00,
2013-06-12 00:15:00,76.0,69.4,29.79,East,90,10.0,15.0,80,0.00,,,-99.99,Weather View 32 v60,2013-06-12 05:15:00,
2013-06-12 00:30:00,76.0,69.4,29.79,ESE,112,6.0,15.0,80,0.00,,,-99.99,Weather View 32 v60,2013-06-12 05:30:00,
2013-06-12 00:45:00,75.0,68.4,29.79,East,90,6.0,15.0,80,0.00,,,-99.99,Weather View 32 v60,2013-06-12 05:45:00,
2013-06-12 01:00:00,76.0,69.4,29.78,ENE,67,0.0,15.0,80,0.00,,,-99.99,Weather View 32 v60,2013-06-12 06:00:00,
2013-06-12 01:08:00,76.0,69.4,29.78,ENE,67,0.0,15.0,80,0.00,,,-99.99,Weather View 32 v60,2013-06-12 06:08:00,
2013-06-12 01:15:00,75.0,68.0,29.77,East,90,3.0,15.0,79,0.00,,,-99.99,Weather View 32 v60,2013-06-12 06:15:00,
2013-06-12 01:30:00,75.0,68.4,29.80,North,360,0.0,15.0,80,0.00,,,-99.99,Weather View 32 v60,2013-06-12 06:30:00,
2013-06-12 01:45:00,72.0,63.6,29.81,NNE,22,0.0,15.0,75,0.11,,,-99.99,Weather View 32 v60,2013-06-12 06:45:00,
2013-06-12 02:00:00,71.0,60.3,29.82,West,270,0.0,15.0,69,0.11,,,-99.99,Weather View 32 v60,2013-06-12 07:00:00,
2013-06-12 02:09:00,71.0,60.3,29.82,West,270,0.0,15.0,69,0.11,,,-99.99,Weather View 32 v60,2013-06-12 07:09:00,
2013-06-12 02:15:00,71.0,59.0,29.82,NE,45,0.0,10.0,66,0.11,,,-99.99,Weather View 32 v60,2013-06-12 07:15:00,
2013-06-12 02:30:00,71.0,57.3,29.82,ESE,112,3.0,7.0,62,0.11,,,-99.99,Weather View 32 v60,2013-06-12 07:30:00,
2013-06-12 02:45:00,70.0,55.9,29.79,NW,315,4.0,8.0,61,0.05,,,-99.99,Weather View 32 v60,2013-06-12 07:45:00,
2013-06-12 03:00:00,70.0,55.4,29.82,East,90,0.0,11.0,60,0.05,,,-99.99,Weather View 32 v60,2013-06-12 08:00:00,
2013-06-12 03:10:00,70.0,55.4,29.82,East,90,0.0,11.0,60,0.05,,,-99.99,Weather View 32 v60,2013-06-12 08:10:00,
2013-06-12 03:15:00,70.0,55.0,29.82,ESE,112,0.0,11.0,59,0.05,,,-99.99,Weather View 32 v60,2013-06-12 08:15:00,
2013-06-12 03:30:00,70.0,54.5,29.82,East,90,0.0,11.0,58,0.05,,,-99.99,Weather View 32 v60,2013-06-12 08:30:00,
2013-06-12 03:45:00,70.0,54.5,29.80,ESE,112,6.0,11.0,58,0.00,,,-99.99,Weather View 32 v60,2013-06-12 08:45:00,
2013-06-12 04:00:00,70.0,55.4,29.78,SSE,157,1.0,15.0,60,0.00,,,-99.99,Weather View 32 v60,2013-06-12 09:00:00,
2013-06-12 04:10:00,70.0,55.4,29.78,SSE,157,1.0,15.0,60,0.00,,,-99.99,Weather View 32 v60,2013-06-12 09:10:00,
2013-06-12 04:30:00,71.0,61.5,29.73,ESE,112,6.0,22.0,72,0.01,,,-99.99,Weather View 32 v60,2013-06-12 09:30:00,
2013-06-12 04:45:00,71.0,63.8,29.73,ESE,112,13.0,22.0,78,0.01,,,-99.99,Weather View 32 v60,2013-06-12 09:45:00,
2013-06-12 05:00:00,71.0,64.5,29.72,ESE,112,3.0,22.0,80,0.01,,,-99.99,Weather View 32 v60,2013-06-12 10:00:00,
2013-06-12 05:11:00,71.0,64.5,29.72,ESE,112,3.0,22.0,80,0.01,,,-99.99,Weather View 32 v60,2013-06-12 10:11:00,
2013-06-12 05:30:00,71.0,64.9,29.75,ESE,112,0.0,20.0,81,0.00,,,-99.99,Weather View 32 v60,2013-06-12 10:30:00,
2013-06-12 05:45:00,70.0,63.5,29.76,West,270,0.0,18.0,80,0.00,,,-99.99,Weather View 32 v60,2013-06-12 10:45:00,
2013-06-12 06:00:00,70.0,60.9,29.80,WNW,292,5.0,15.0,73,0.00,,,-99.99,Weather View 32 v60,2013-06-12 11:00:00,
2013-06-12 06:11:00,70.0,60.9,29.80,WNW,292,5.0,15.0,73,0.00,,,-99.99,Weather View 32 v60,2013-06-12 11:11:00,
2013-06-12 06:30:00,71.0,64.1,29.82,NNW,337,2.0,16.0,79,0.00,,,-99.99,Weather View 32 v60,2013-06-12 11:30:00,
2013-06-12 06:45:00,72.0,65.5,29.80,East,90,0.0,16.0,80,0.00,,,-99.99,Weather View 32 v60,2013-06-12 11:45:00,
2013-06-12 07:00:00,72.0,65.5,29.80,ESE,112,0.0,16.0,80,0.00,,,-99.99,Weather View 32 v60,2013-06-12 12:00:00,
2013-06-12 07:12:00,72.0,65.5,29.80,ESE,112,0.0,16.0,80,0.00,,,-99.99,Weather View 32 v60,2013-06-12 12:12:00,
2013-06-12 07:30:00,75.0,69.1,29.80,ENE,67,0.0,7.0,82,0.00,,,-99.99,Weather View 32 v60,2013-06-12 12:30:00,
2013-06-12 07:45:00,75.0,69.1,29.80,ENE,67,0.0,9.0,82,0.00,,,-99.99,Weather View 32 v60,2013-06-12 12:45:00,
2013-06-12 08:00:00,76.0,70.4,29.80,ESE,112,2.0,9.0,83,0.00,,,-99.99,Weather View 32 v60,2013-06-12 13:00:00,
2013-06-12 08:12:00,76.0,70.4,29.80,ESE,112,2.0,9.0,83,0.00,,,-99.99,Weather View 32 v60,2013-06-12 13:12:00,
2013-06-12 08:30:00,77.0,70.7,29.79,ENE,67,2.0,9.0,81,0.00,,,-99.99,Weather View 32 v60,2013-06-12 13:30:00,
2013-06-12 08:45:00,78.0,71.7,29.78,ENE,67,0.0,9.0,81,0.00,,,-99.99,Weather View 32 v60,2013-06-12 13:45:00,
2013-06-12 09:00:00,78.0,71.7,29.78,NE,45,0.0,12.0,81,0.00,,,-99.99,Weather View 32 v60,2013-06-12 14:00:00,
2013-06-12 09:13:00,78.0,71.7,29.78,NE,45,0.0,12.0,81,0.00,,,-99.99,Weather View 32 v60,2013-06-12 14:13:00,
2013-06-12 09:30:00,81.0,72.3,29.76,ENE,67,0.0,12.0,75,0.00,,,-99.99,Weather View 32 v60,2013-06-12 14:30:00,
2013-06-12 09:45:00,82.0,72.9,29.76,ESE,112,2.0,12.0,74,0.00,,,-99.99,Weather View 32 v60,2013-06-12 14:45:00,
2013-06-12 10:00:00,82.0,72.4,29.76,ESE,112,0.0,9.0,73,0.00,,,-99.99,Weather View 32 v60,2013-06-12 15:00:00,
2013-06-12 10:14:00,82.0,72.4,29.76,ESE,112,0.0,9.0,73,0.00,,,-99.99,Weather View 32 v60,2013-06-12 15:14:00,
2013-06-12 10:30:00,81.0,71.1,29.78,NNW,337,2.0,12.0,72,0.00,,,-99.99,Weather View 32 v60,2013-06-12 15:30:00,
2013-06-12 10:45:00,81.0,71.1,29.78,North,360,0.0,12.0,72,0.00,,,-99.99,Weather View 32 v60,2013-06-12 15:45:00,
2013-06-12 11:00:00,80.0,72.5,29.80,NNE,22,0.0,14.0,78,0.00,,,-99.99,Weather View 32 v60,2013-06-12 16:00:00,
2013-06-12 11:14:00,80.0,72.5,29.80,NNE,22,0.0,14.0,78,0.00,,,-99.99,Weather View 32 v60,2013-06-12 16:14:00,
2013-06-12 11:30:00,74.0,67.8,29.84,NNW,337,4.0,18.0,81,0.00,,,-99.99,Weather View 32 v60,2013-06-12 16:30:00,
2013-06-12 11:45:00,73.0,66.8,29.86,NNE,22,6.0,18.0,81,0.00,,,-99.99,Weather View 32 v60,2013-06-12 16:45:00,
2013-06-12 12:00:00,72.0,65.8,29.87,NE,45,3.0,18.0,81,0.00,,,-99.99,Weather View 32 v60,2013-06-12 17:00:00,
2013-06-12 12:15:00,72.0,66.2,29.88,ENE,67,0.0,18.0,82,0.00,,,-99.99,Weather View 32 v60,2013-06-12 17:15:00,
2013-06-12 12:30:00,72.0,66.2,29.88,NNW,337,7.0,17.0,82,0.00,,,-99.99,Weather View 32 v60,2013-06-12 17:30:00,
2013-06-12 12:45:00,73.0,66.8,29.88,North,360,0.0,15.0,81,0.00,,,-99.99,Weather View 32 v60,2013-06-12 17:45:00,
2013-06-12 13:00:00,72.0,66.2,29.89,NNW,337,11.0,16.0,82,0.00,,,-99.99,Weather View 32 v60,2013-06-12 18:00:00,
2013-06-12 13:15:00,73.0,66.4,29.88,NW,315,0.0,17.0,80,0.00,,,-99.99,Weather View 32 v60,2013-06-12 18:15:00,
2013-06-12 13:30:00,72.0,65.5,29.89,North,360,6.0,20.0,80,0.00,,,-99.99,Weather View 32 v60,2013-06-12 18:30:00,
2013-06-12 13:45:00,72.0,65.1,29.89,NNW,337,5.0,20.0,79,0.00,,,-99.99,Weather View 32 v60,2013-06-12 18:45:00,
2013-06-12 14:00:00,74.0,66.3,29.89,NE,45,2.0,20.0,77,0.00,,,-99.99,Weather View 32 v60,2013-06-12 19:00:00,
2013-06-12 14:15:00,74.0,64.8,29.87,NW,315,0.0,22.0,73,0.00,,,-99.99,Weather View 32 v60,2013-06-12 19:15:00,
2013-06-12 14:30:00,75.0,64.9,29.88,NNW,337,9.0,22.0,71,0.00,,,-99.99,Weather View 32 v60,2013-06-12 19:30:00,
2013-06-12 14:45:00,76.0,64.6,29.88,NNE,22,0.0,22.0,68,0.00,,,-99.99,Weather View 32 v60,2013-06-12 19:45:00,
2013-06-12 15:00:00,76.0,63.8,29.87,NW,315,10.0,26.0,66,0.00,,,-99.99,Weather View 32 v60,2013-06-12 20:00:00,
2013-06-12 15:15:00,75.0,63.3,29.89,NNW,337,1.0,26.0,67,0.00,,,-99.99,Weather View 32 v60,2013-06-12 20:15:00,
2013-06-12 15:30:00,77.0,63.8,29.88,North,360,15.0,26.0,64,0.00,,,-99.99,Weather View 32 v60,2013-06-12 20:30:00,
2013-06-12 15:45:00,75.0,61.5,29.89,NNW,337,7.0,26.0,63,0.00,,,-99.99,Weather View 32 v60,2013-06-12 20:45:00,
2013-06-12 16:00:00,74.0,60.6,29.89,NNW,337,6.0,23.0,63,0.00,,,-99.99,Weather View 32 v60,2013-06-12 21:00:00,
2013-06-12 16:15:00,74.0,60.1,29.89,WNW,292,1.0,23.0,62,0.00,,,-99.99,Weather View 32 v60,2013-06-12 21:15:00,
2013-06-12 16:30:00,74.0,60.1,29.90,WNW,292,13.0,23.0,62,0.00,,,-99.99,Weather View 32 v60,2013-06-12 21:30:00,
2013-06-12 16:45:00,75.0,59.2,29.90,NW,315,12.0,23.0,58,0.00,,,-99.99,Weather View 32 v60,2013-06-12 21:45:00,
2013-06-12 17:00:00,74.0,59.7,29.90,North,360,4.0,23.0,61,0.00,,,-99.99,Weather View 32 v60,2013-06-12 22:00:00,
2013-06-12 17:15:00,73.0,59.2,29.92,NNW,337,15.0,24.0,62,0.00,,,-99.99,Weather View 32 v60,2013-06-12 22:15:00,
2013-06-12 17:30:00,71.0,59.9,29.93,NNE,22,2.0,24.0,68,0.00,,,-99.99,Weather View 32 v60,2013-06-12 22:30:00,
2013-06-12 17:45:00,69.0,58.8,29.94,WSW,247,0.0,24.0,70,0.00,,,-99.99,Weather View 32 v60,2013-06-12 22:45:00,
2013-06-12 18:00:00,68.0,57.8,29.95,NNW,337,2.0,24.0,70,0.00,,,-99.99,Weather View 32 v60,2013-06-12 23:00:00,
2013-06-12 18:15:00,68.0,57.4,29.97,ENE,67,0.0,22.0,69,0.00,,,-99.99,Weather View 32 v60,2013-06-12 23:15:00,
2013-06-12 18:30:00,67.0,56.9,29.97,East,90,2.0,21.0,70,0.00,,,-99.99,Weather View 32 v60,2013-06-12 23:30:00,
2013-06-12 18:45:00,66.0,56.7,29.98,NNE,22,0.0,19.0,72,0.00,,,-99.99,Weather View 32 v60,2013-06-12 23:45:00,
2013-06-12 19:00:00,67.0,56.1,29.99,NNW,337,4.0,18.0,68,0.00,,,-99.99,Weather View 32 v60,2013-06-13 00:00:00,
2013-06-12 19:15:00,66.0,55.9,30.00,NE,45,0.0,17.0,70,0.00,,,-99.99,Weather View 32 v60,2013-06-13 00:15:00,
2013-06-12 19:30:00,65.0,55.7,30.01,NNE,22,1.0,13.0,72,0.00,,,-99.99,Weather View 32 v60,2013-06-13 00:30:00,
2013-06-12 19:45:00,64.0,55.5,30.02,North,360,1.0,13.0,74,0.00,,,-99.99,Weather View 32 v60,2013-06-13 00:45:00,
2013-06-12 20:00:00,64.0,55.5,30.03,NE,45,0.0,13.0,74,0.00,,,-99.99,Weather View 32 v60,2013-06-13 01:00:00,
2013-06-12 20:15:00,64.0,55.1,30.04,ENE,67,0.0,13.0,73,0.00,,,-99.99,Weather View 32 v60,2013-06-13 01:15:00,
2013-06-12 20:30:00,64.0,54.8,30.04,NNW,337,2.0,13.0,72,0.00,,,-99.99,Weather View 32 v60,2013-06-13 01:30:00,
2013-06-12 20:45:00,64.0,54.8,30.05,NE,45,0.0,13.0,72,0.00,,,-99.99,Weather View 32 v60,2013-06-13 01:45:00,
2013-06-12 21:00:00,63.0,54.9,30.05,North,360,0.0,13.0,75,0.00,,,-99.99,Weather View 32 v60,2013-06-13 02:00:00,
2013-06-12 21:15:00,62.0,54.7,30.05,NNW,337,8.0,13.0,77,0.00,,,-99.99,Weather View 32 v60,2013-06-13 02:15:00,
2013-06-12 21:20:00,62.0,54.7,30.05,NNW,337,8.0,13.0,77,0.00,,,-99.99,Weather View 32 v60,2013-06-13 02:20:00,
2013-06-12 21:30:00,62.0,55.0,30.06,WNW,292,0.0,12.0,78,0.00,,,-99.99,Weather View 32 v60,2013-06-13 02:30:00,
2013-06-12 21:45:00,61.0,54.8,30.06,NW,315,2.0,9.0,80,0.00,,,-99.99,Weather View 32 v60,2013-06-13 02:45:00,
2013-06-12 22:00:00,62.0,55.7,30.06,NNW,337,0.0,13.0,80,0.00,,,-99.99,Weather View 32 v60,2013-06-13 03:00:00,
2013-06-12 22:15:00,62.0,55.7,30.06,NNW,337,4.0,13.0,80,0.00,,,-99.99,Weather View 32 v60,2013-06-13 03:15:00,
2013-06-12 22:21:00,62.0,55.7,30.06,NNW,337,4.0,13.0,80,0.00,,,-99.99,Weather View 32 v60,2013-06-13 03:21:00,
2013-06-12 22:30:00,62.0,56.1,30.07,NNW,337,0.0,13.0,81,0.00,,,-99.99,Weather View 32 v60,2013-06-13 03:30:00,
2013-06-12 22:45:00,61.0,55.5,30.08,North,360,0.0,13.0,82,0.00,,,-99.99,Weather View 32 v60,2013-06-13 03:45:00,
2013-06-12 23:00:00,61.0,55.5,30.09,WSW,247,2.0,12.0,82,0.00,,,-99.99,Weather View 32 v60,2013-06-13 04:00:00,
2013-06-12 23:15:00,60.0,54.8,30.10,North,360,0.0,9.0,83,0.00,,,-99.99,Weather View 32 v60,2013-06-13 04:15:00,
2013-06-12 23:21:00,60.0,54.8,30.10,North,360,0.0,9.0,83,0.00,,,-99.99,Weather View 32 v60,2013-06-13 04:21:00,
2013-06-12 23:30:00,59.0,53.8,30.10,WNW,292,0.0,7.0,83,0.00,,,-99.99,Weather View 32 v60,2013-06-13 04:30:00,
2013-06-12 23:45:00,60.0,54.8,30.10,West,270,0.0,7.0,83,0.00,,,-99.99,Weather View 32 v60,2013-06-13 04:45:00,